Regional Weather Roundup
Issued by NWS

Home | Current Version | Previous Version | Text Only | Print | Product List | Glossary Off
Versions: 1 2 3 4 5 6 7 8 9 10 11 12 13 14 15 16 17 18 19 20 21 22 23 24 25 26 27 28 29 30 31 32 33 34 35 36 37 38 39 40 41 42 43 44 45 46 47 48 49 50

000
ASUS43 KMPX 271910
RWRMN
WEATHER ROUNDUP FOR MINNESOTA
NATIONAL WEATHER SERVICE TWIN CITIES/CHANHASSEN MN
100 PM CST MON FEB 27 2017


NOTE: "FAIR" INDICATES FEW OR NO CLOUDS BELOW 12,000 FEET WITH NO
SIGNIFICANT WEATHER AND/OR OBSTRUCTIONS TO VISIBILITY. N/A MEANS
CURRENT SKY AND/OR WEATHER CONDITIONS ARE NOT AVAILABLE.

MNZ060>063-068>070-272000-
   Twin Cities Metro

CITY           SKY/WX    TMP DP  RH WIND       PRES   REMARKS
TWIN CITIES    CLOUDY    43  17  35 S17G25    29.95F
ST PAUL        CLOUDY    42  21  43 S14       29.97F
CRYSTAL        CLOUDY    44  19  36 S13       29.93F
BLAINE         PTSUNNY   45  19  36 S16G26    29.92F
LAKEVILLE      CLOUDY    37  25  60 S12G17    29.96F
EDEN PRAIRIE   CLOUDY    43  19  38 S16G24    29.93F
SOUTH ST PAUL  CLOUDY    42  22  45 S9        29.96F
LAKE ELMO      FAIR      39  25  56 S10G18    29.97F
$$
MNZ001>005-007-008-013>017-022>024-027-028-272000-
   Northwest Minnesota

CITY           SKY/WX    TMP DP  RH WIND       PRES   REMARKS
BEMIDJI        CLOUDY    28  15  59 S5        29.87F WCI  23
HALLOCK        CLOUDY    21  14  73 NW8       29.92R HAZE    WCI  12
ROSEAU         CLOUDY    25  16  68 SW12      29.89S WCI  14
WARROAD        CLOUDY    25  12  58 SW8       29.89S WCI  16
THIEF RVR FALL   N/A    N/A N/A N/A MISG        N/A
CROOKSTON      CLOUDY    25  18  74 CALM      29.91F
FOSSTON        CLOUDY    28  16  59 SW6       29.88F WCI  22
DETROIT LAKES  CLOUDY    32  21  64 S6        29.86F WCI  26
MOORHEAD       CLOUDY    28  19  69 CALM      29.88F
PARK RAPIDS    MOSUNNY   31  17  56 S3        29.86F
MAHNOMEN       FAIR      28  19  67 CALM      29.87F
$$
MNZ006-009>011-018-025>026-272000-
   North Central Minnesota

CITY           SKY/WX    TMP DP  RH WIND       PRES   REMARKS
BAUDETTE       CLOUDY    24   8  50 S8        29.88F WCI  15
FLAG ISLAND    MOSUNNY   19  12  73 S14       29.86F WCI   6
INTL FALLS     MOSUNNY   24   9  52 VRB6      29.90F WCI  17
WASKISH        CLOUDY    25  12  58 CALM      29.90F
BIG FORK       CLOUDY    28  12  50 CALM      29.90S
LONGVILLE      SUNNY     34  19  55 S6        29.88F WCI  29
GRAND RAPIDS   SUNNY     31  19  61 S6        29.91F WCI  25
CRANE LAKE     CLOUDY    25   3  39 S3        29.93F
ORR            CLOUDY    27   7  43 CALM      29.89S
COOK           CLOUDY    27  12  54 S7        29.91F WCI  19
WALKER         FAIR      29  15  55 E3        29.88F
$$
MNZ012-019>021-037-272000-
   Northeast Minnesota

CITY           SKY/WX    TMP DP  RH WIND       PRES   REMARKS
DULUTH         CLOUDY    28  22  78 S7        29.91F WCI  21
ELY            CLOUDY    27  12  54 SW7       29.91F WCI  19
HIBBING        CLOUDY    26  17  68 E7        29.90F WCI  18
EVELETH        MOSUNNY   29  15  56 S7        29.91F WCI  22
DULUTH HARBOR  CLOUDY    28  23  80 CALM      29.98F
TWO HARBORS    CLOUDY    32  23  69 E3        29.93F
SILVER BAY     CLOUDY    28  19  69 SE3       29.93F
GRAND MARAIS     N/A     27  17  66 E3        29.99F
G MARAIS ARPRT FLURRIES  25  10  54 SE6       29.91F WCI  18
$$
MNZ029>031-032-039>041-046>048-054>057-064-272000-
   West Central Minnesota

CITY           SKY/WX    TMP DP  RH WIND       PRES   REMARKS
FERGUS FALLS   CLOUDY    28  23  80 SE8       29.89F WCI  20
WHEATON        CLOUDY    32  27  80 SE10      29.86F WCI  24
MORRIS         CLOUDY    34  25  69 S12       29.85F WCI  25
ALEXANDRIA     CLOUDY    35  26  69 SE12      29.86F WCI  27
ELBOW LAKE     FAIR      32  28  85 E10       29.85F FOG     WCI  24
WADENA         CLOUDY    30  21  69 SE8       29.86F WCI  23
GLENWOOD       CLOUDY    36  25  64 S10       29.87S
APPLETON       CLOUDY    37  21  52 SE8       29.85F
BENSON         CLOUDY    37  19  48 S8        29.88F
ORTONVILLE     CLOUDY    36  25  64 SE12      29.83F
MADISON        CLOUDY    43  27  52 SE13      29.84F
WILLMAR        FAIR      37  28  70 S6        29.90F
$$
MNZ033>034-036-042>043-049>051-058-059-272000-
   Central Minnesota

CITY           SKY/WX    TMP DP  RH WIND       PRES   REMARKS
ST CLOUD       CLOUDY    39  23  52 S15       29.90F
SAUK CENTRE    FAIR      35  25  67 SE8       29.88F WCI  28
PAYNESVILLE    CLOUDY    36  25  64 S14       29.90S
AITKIN         MOSUNNY   34  21  60 SE9       29.89F WCI  26
PINE RIVER     SUNNY     30  21  69 SE5       29.91F WCI  25
BRAINERD       CLOUDY    32  25  75 S6        29.89F WCI  26
STAPLES        CLOUDY    34  23  64 SE6       29.86F WCI  29
LONG PRAIRIE   PTSUNNY   32  27  80 E7        29.88F WCI  26
LITTLE FALLS   CLOUDY    36  25  64 SE6       29.89F
LITCHFIELD     MOSUNNY   43  28  56 S5        29.90F
BUFFALO        CLOUDY    40  23  50 S12G17    29.93F
MAPLE LAKE     CLOUDY    41  27  59 S8        29.92F
HUTCHINSON     CLOUDY    42  29  59 S12       29.92F
$$
MNZ037-044-045-052-053-272000-
   East Central Minnesota

CITY           SKY/WX    TMP DP  RH WIND       PRES   REMARKS
PRINCETON      CLOUDY    43  23  45 S10       29.91F
MORA           SUNNY     37  23  56 SW7       29.93F
CAMBRIDGE      PTSUNNY   45  27  49 S14       29.90F
RUSH CITY      MOSUNNY   43  22  43 SW9       29.92F
MOOSE LAKE     CLOUDY    32  25  74 CALM      29.91F
HINCKLEY       FAIR      37  25  60 S10       29.92F
CLOQUET        CLOUDY    30  19  64 SE5       29.91F WCI  25
MCGREGOR       MOSUNNY   34  25  69 SE5       29.91F WCI  30
$$
MNZ071>073-080-081-089-090-097-098-272000-
   Southwest Minnesota

CITY           SKY/WX    TMP DP  RH WIND       PRES   REMARKS
MONTEVIDEO     CLOUDY    39  27  60 S8        29.88F
GRANITE FALLS  MOSUNNY   44  27  51 S12       29.88F
CANBY          CLOUDY    44  19  37 S10G18    29.84F
MARSHALL       CLOUDY    44  19  36 S17       29.85F
REDWOOD FALLS  CLOUDY    44  23  43 SW13      29.89F
OLIVIA         CLOUDY    41  27  56 S10       29.88F
PIPESTONE      MOSUNNY   39  21  48 S13       29.83F
WINDOM         CLOUDY    43  25  49 S13       29.89F
JACKSON        SUNNY     37  23  56 S10G16    29.90F
TRACY          CLOUDY    44  23  43 SW15      29.87F
SLAYTON        CLOUDY    39  24  55 S14       29.87F
$$
MNZ065>067-074>077-082>085-091>093-272000-
   South Central Minnesota

CITY           SKY/WX    TMP DP  RH WIND       PRES   REMARKS
MANKATO          N/A     37  25  61 S10G18    29.95F
NEW ULM        CLOUDY    39  25  56 S12G18    29.91F
ST JAMES       CLOUDY    37  27  65 S10       29.93F
FAIRMONT       SUNNY     35  25  66 S13       29.93F WCI  26
GLENCOE        CLOUDY    41  29  62 S14       29.92F
FARIBAULT      CLOUDY    36  25  64 S12G17    29.97F
OWATONNA       CLOUDY    37  21  52 S13       29.96F
WASECA         CLOUDY    36  23  60 S16       29.96F
ALBERT LEA     SUNNY     37  23  56 SE12      29.95F
$$
MNZ078>079-086>088-094>096-272000-
   Southeast Minnesota

CITY           SKY/WX    TMP DP  RH WIND       PRES   REMARKS
ROCHESTER      SUNNY     35  25  66 S10       29.99F WCI  27
RED WING       CLOUDY    39  19  45 S7        29.99F
WINONA         SUNNY     41  23  48 S6        30.03F
AUSTIN         SUNNY     36  25  64 S6        29.98F
PRESTON        SUNNY     37  26  63 S10       30.01F
$$
ABBREVIATIONS USED IN REMARKS
   TC - TEMPERATURES IN CELSIUS
  WCI - WIND CHILL INDEX
   HX - HEAT INDEX
  VSB - VISIBILITY
$$




USA.gov is the U.S. government's official web portal to all federal, state and local government web resources and services.